Time,TemperatureF,DewpointF,PressureIn,WindDirection,WindDirectionDegrees,WindSpeedMPH,WindSpeedGustMPH,Humidity,HourlyPrecipIn,Conditions,Clouds,dailyrainin,SoftwareType,DateUTC
2013-03-14 00:00:00,48.9,25.6,30.06,North,360,5.0,6.0,40,0.00,,,0.00,Wunderground v.1.15,2013-03-14 04:00:00,
2013-03-14 00:10:00,48.6,24.7,30.07,NNW,327,6.0,6.0,39,0.00,,,0.00,Wunderground v.1.15,2013-03-14 04:10:00,
2013-03-14 00:20:00,48.3,23.8,30.07,NNE,33,6.0,10.0,38,0.00,,,0.00,Wunderground v.1.15,2013-03-14 04:20:00,
2013-03-14 00:30:00,47.8,24.0,30.07,NNW,331,5.0,5.0,39,0.00,,,0.00,Wunderground v.1.15,2013-03-14 04:30:00,
2013-03-14 00:40:00,47.4,24.3,30.07,NNW,327,4.0,4.0,40,0.00,,,0.00,Wunderground v.1.15,2013-03-14 04:40:00,
2013-03-14 00:50:00,47.0,23.9,30.07,NNW,342,5.0,5.0,40,0.00,,,0.00,Wunderground v.1.15,2013-03-14 04:50:00,
2013-03-14 01:00:00,46.7,24.2,30.08,NNW,341,4.0,5.0,41,0.00,,,0.00,Wunderground v.1.15,2013-03-14 05:00:00,
2013-03-14 01:10:00,46.4,23.9,30.08,NNW,333,5.0,5.0,41,0.00,,,0.00,Wunderground v.1.15,2013-03-14 05:10:00,
2013-03-14 01:20:00,46.0,24.2,30.08,NNW,339,4.0,4.0,42,0.00,,,0.00,Wunderground v.1.15,2013-03-14 05:20:00,
2013-03-14 01:30:00,45.7,23.9,30.08,NNW,334,4.0,5.0,42,0.00,,,0.00,Wunderground v.1.15,2013-03-14 05:30:00,
2013-03-14 01:40:00,45.4,24.2,30.09,NNW,333,4.0,4.0,43,0.00,,,0.00,Wunderground v.1.15,2013-03-14 05:40:00,
2013-03-14 01:50:00,45.0,24.4,30.09,NNW,337,4.0,5.0,44,0.00,,,0.00,Wunderground v.1.15,2013-03-14 05:50:00,
2013-03-14 02:00:00,44.6,24.5,30.09,NNW,335,3.0,3.0,45,0.00,,,0.00,Wunderground v.1.15,2013-03-14 06:00:00,
2013-03-14 02:10:00,44.2,24.7,30.09,NNW,330,3.0,3.0,46,0.00,,,0.00,Wunderground v.1.15,2013-03-14 06:10:00,
2013-03-14 02:15:00,44.1,24.6,30.09,NNW,328,3.0,3.0,46,0.00,,,0.00,Wunderground v.1.15,2013-03-14 06:15:00,
2013-03-14 02:25:00,43.7,24.8,30.09,NNW,340,3.0,5.0,47,0.00,,,0.00,Wunderground v.1.15,2013-03-14 06:25:00,
2013-03-14 02:30:00,43.5,25.1,30.10,NNW,333,4.0,4.0,48,0.00,,,0.00,Wunderground v.1.15,2013-03-14 06:30:00,
2013-03-14 02:40:00,43.1,25.2,30.10,NNW,342,3.0,4.0,49,0.00,,,0.00,Wunderground v.1.15,2013-03-14 06:40:00,
2013-03-14 02:50:00,42.7,24.8,30.10,North,355,3.0,4.0,49,0.00,,,0.00,Wunderground v.1.15,2013-03-14 06:50:00,
2013-03-14 03:00:00,42.4,25.5,30.11,North,355,4.0,4.0,51,0.00,,,0.00,Wunderground v.1.15,2013-03-14 07:00:00,
2013-03-14 03:05:00,42.1,25.7,30.11,North,351,4.0,4.0,52,0.00,,,0.00,Wunderground v.1.15,2013-03-14 07:05:00,
2013-03-14 03:15:00,41.8,25.4,30.11,NNW,346,5.0,8.0,52,0.00,,,0.00,Wunderground v.1.15,2013-03-14 07:15:00,
2013-03-14 03:25:00,41.5,25.2,30.11,NE,35,4.0,8.0,52,0.00,,,0.00,Wunderground v.1.15,2013-03-14 07:25:00,
2013-03-14 03:35:00,41.3,24.5,30.11,North,360,5.0,6.0,51,0.00,,,0.00,Wunderground v.1.15,2013-03-14 07:35:00,
2013-03-14 03:45:00,41.1,24.3,30.12,North,5,5.0,7.0,51,0.00,,,0.00,Wunderground v.1.15,2013-03-14 07:45:00,
2013-03-14 03:55:00,40.7,24.0,30.12,NNW,348,5.0,5.0,51,0.00,,,0.00,Wunderground v.1.15,2013-03-14 07:55:00,
2013-03-14 04:05:00,40.5,23.3,30.12,North,360,5.0,5.0,50,0.00,,,0.00,Wunderground v.1.15,2013-03-14 08:05:00,
2013-03-14 04:10:00,40.3,23.1,30.13,North,5,5.0,5.0,50,0.00,,,0.00,Wunderground v.1.15,2013-03-14 08:10:00,
2013-03-14 04:20:00,40.0,23.3,30.13,North,355,5.0,5.0,51,0.00,,,0.00,Wunderground v.1.15,2013-03-14 08:20:00,
2013-03-14 04:30:00,39.6,22.9,30.13,North,355,5.0,7.0,51,0.00,,,0.00,Wunderground v.1.15,2013-03-14 08:30:00,
2013-03-14 04:40:00,39.4,22.3,30.13,NW,326,6.0,6.0,50,0.00,,,0.00,Wunderground v.1.15,2013-03-14 08:40:00,
2013-03-14 04:50:00,39.1,22.5,30.14,NNW,347,4.0,7.0,51,0.00,,,0.00,Wunderground v.1.15,2013-03-14 08:50:00,
2013-03-14 05:00:00,38.9,22.3,30.14,NNW,343,4.0,4.0,51,0.00,,,0.00,Wunderground v.1.15,2013-03-14 09:00:00,
2013-03-14 05:05:00,38.8,22.7,30.14,NW,325,4.0,4.0,52,0.00,,,0.00,Wunderground v.1.15,2013-03-14 09:05:00,
2013-03-14 05:15:00,38.5,22.4,30.14,NW,325,4.0,4.0,52,0.00,,,0.00,Wunderground v.1.15,2013-03-14 09:15:00,
2013-03-14 05:25:00,38.3,22.2,30.15,NNW,344,4.0,4.0,52,0.00,,,0.00,Wunderground v.1.15,2013-03-14 09:25:00,
2013-03-14 05:35:00,38.0,21.9,30.15,NNW,327,4.0,4.0,52,0.00,,,0.00,Wunderground v.1.15,2013-03-14 09:35:00,
2013-03-14 05:45:00,37.7,22.1,30.16,NNW,330,4.0,7.0,53,0.00,,,0.00,Wunderground v.1.15,2013-03-14 09:45:00,
2013-03-14 05:55:00,37.6,21.1,30.16,North,355,6.0,6.0,51,0.00,,,0.00,Wunderground v.1.15,2013-03-14 09:55:00,
2013-03-14 06:05:00,37.3,21.3,30.17,North,355,4.0,6.0,52,0.00,,,0.00,Wunderground v.1.15,2013-03-14 10:05:00,
2013-03-14 06:10:00,37.2,21.2,30.17,North,5,4.0,6.0,52,0.00,,,0.00,Wunderground v.1.15,2013-03-14 10:10:00,
2013-03-14 06:20:00,37.0,20.5,30.17,North,355,6.0,6.0,51,0.00,,,0.00,Wunderground v.1.15,2013-03-14 10:20:00,
2013-03-14 06:30:00,36.7,20.7,30.17,North,360,4.0,5.0,52,0.00,,,0.00,Wunderground v.1.15,2013-03-14 10:30:00,
2013-03-14 06:40:00,36.4,20.9,30.18,NNE,22,3.0,4.0,53,0.00,,,0.00,Wunderground v.1.15,2013-03-14 10:40:00,
2013-03-14 06:50:00,36.1,21.0,30.18,North,355,2.0,2.0,54,0.00,,,0.00,Wunderground v.1.15,2013-03-14 10:50:00,
2013-03-14 07:00:00,35.9,20.9,30.19,North,355,2.0,3.0,54,0.00,,,0.00,Wunderground v.1.15,2013-03-14 11:00:00,
2013-03-14 07:10:00,35.6,21.4,30.19,North,355,2.0,2.0,56,0.00,,,0.00,Wunderground v.1.15,2013-03-14 11:10:00,
2013-03-14 07:20:00,35.4,20.8,30.20,NW,321,2.0,2.0,55,0.00,,,0.00,Wunderground v.1.15,2013-03-14 11:20:00,
2013-03-14 07:30:00,35.3,20.7,30.21,NNW,333,2.0,3.0,55,0.00,,,0.00,Wunderground v.1.15,2013-03-14 11:30:00,
2013-03-14 07:40:00,35.5,20.9,30.21,NNW,333,3.0,3.0,55,0.00,,,0.00,Wunderground v.1.15,2013-03-14 11:40:00,
2013-03-14 07:45:00,35.5,21.3,30.21,NW,326,2.0,3.0,56,0.00,,,0.00,Wunderground v.1.15,2013-03-14 11:45:00,
2013-03-14 07:50:00,35.5,21.8,30.21,NW,326,2.0,2.0,57,0.00,,,0.00,Wunderground v.1.15,2013-03-14 11:50:00,
2013-03-14 08:00:00,35.7,21.5,30.21,NW,315,2.0,3.0,56,0.00,,,0.00,Wunderground v.1.15,2013-03-14 12:00:00,
2013-03-14 08:10:00,35.9,20.9,30.22,NNE,17,3.0,3.0,54,0.00,,,0.00,Wunderground v.1.15,2013-03-14 12:10:00,
2013-03-14 08:15:00,36.1,21.5,30.22,NNW,345,3.0,3.0,55,0.00,,,0.00,Wunderground v.1.15,2013-03-14 12:15:00,
2013-03-14 08:25:00,36.5,21.0,30.22,North,355,4.0,5.0,53,0.00,,,0.00,Wunderground v.1.15,2013-03-14 12:25:00,
2013-03-14 08:35:00,36.9,20.9,30.23,NW,325,4.0,4.0,52,0.00,,,0.00,Wunderground v.1.15,2013-03-14 12:35:00,
2013-03-14 08:45:00,37.3,20.8,30.24,NNW,331,4.0,4.0,51,0.00,,,0.00,Wunderground v.1.15,2013-03-14 12:45:00,
2013-03-14 08:55:00,37.9,19.9,30.24,NNW,330,5.0,7.0,48,0.00,,,0.00,Wunderground v.1.15,2013-03-14 12:55:00,
2013-03-14 09:05:00,38.2,19.2,30.24,North,360,6.0,7.0,46,0.00,,,0.00,Wunderground v.1.15,2013-03-14 13:05:00,
2013-03-14 09:10:00,38.7,19.7,30.24,NNW,344,6.0,6.0,46,0.00,,,0.00,Wunderground v.1.15,2013-03-14 13:10:00,
2013-03-14 09:15:00,38.6,19.1,30.24,North,360,6.0,6.0,45,0.00,,,0.00,Wunderground v.1.15,2013-03-14 13:15:00,
2013-03-14 09:25:00,39.1,19.0,30.24,NNW,328,7.0,8.0,44,0.00,,,0.00,Wunderground v.1.15,2013-03-14 13:25:00,
2013-03-14 09:35:00,39.3,19.2,30.24,NNW,342,6.0,6.0,44,0.00,,,0.00,Wunderground v.1.15,2013-03-14 13:35:00,
2013-03-14 09:45:00,39.6,19.5,30.24,North,9,6.0,8.0,44,0.00,,,0.00,Wunderground v.1.15,2013-03-14 13:45:00,
2013-03-14 09:55:00,39.7,18.5,30.25,NNW,328,6.0,9.0,42,0.00,,,0.00,Wunderground v.1.15,2013-03-14 13:55:00,
2013-03-14 10:00:00,40.0,19.3,30.25,NW,309,7.0,7.0,43,0.00,,,0.00,Wunderground v.1.15,2013-03-14 14:00:00,
2013-03-14 10:10:00,40.6,19.3,30.25,NW,323,6.0,8.0,42,0.00,,,0.00,Wunderground v.1.15,2013-03-14 14:10:00,
2013-03-14 10:20:00,40.5,18.6,30.25,NNE,25,8.0,10.0,41,0.00,,,0.00,Wunderground v.1.15,2013-03-14 14:20:00,
2013-03-14 10:30:00,40.5,19.7,30.24,NNE,15,9.0,13.0,43,0.00,,,0.00,Wunderground v.1.15,2013-03-14 14:30:00,
2013-03-14 10:40:00,40.4,18.5,30.24,North,355,8.0,8.0,41,0.00,,,0.00,Wunderground v.1.15,2013-03-14 14:40:00,
2013-03-14 10:50:00,40.8,19.5,30.24,NNW,338,8.0,8.0,42,0.00,,,0.00,Wunderground v.1.15,2013-03-14 14:50:00,
2013-03-14 11:00:00,41.5,20.1,30.24,North,5,7.0,9.0,42,0.00,,,0.00,Wunderground v.1.15,2013-03-14 15:00:00,
2013-03-14 11:05:00,41.4,20.5,30.23,WNW,297,6.0,9.0,43,0.00,,,0.00,Wunderground v.1.15,2013-03-14 15:05:00,
2013-03-14 11:15:00,42.9,20.8,30.23,NNW,340,6.0,7.0,41,0.00,,,0.00,Wunderground v.1.15,2013-03-14 15:15:00,
2013-03-14 11:25:00,42.4,18.6,30.23,NW,313,6.0,7.0,38,0.00,,,0.00,Wunderground v.1.15,2013-03-14 15:25:00,
2013-03-14 11:35:00,43.1,20.4,30.23,NNW,336,7.0,7.0,40,0.00,,,0.00,Wunderground v.1.15,2013-03-14 15:35:00,
2013-03-14 11:45:00,43.4,19.5,30.23,WNW,302,6.0,7.0,38,0.00,,,0.00,Wunderground v.1.15,2013-03-14 15:45:00,
2013-03-14 11:55:00,43.3,20.0,30.23,West,279,7.0,7.0,39,0.00,,,0.00,Wunderground v.1.15,2013-03-14 15:55:00,
2013-03-14 12:05:00,43.9,21.1,30.23,North,9,6.0,6.0,40,0.00,,,0.00,Wunderground v.1.15,2013-03-14 16:05:00,
2013-03-14 12:10:00,44.3,20.3,30.23,North,10,6.0,6.0,38,0.00,,,0.00,Wunderground v.1.15,2013-03-14 16:10:00,
2013-03-14 12:20:00,44.5,21.0,30.22,WNW,302,5.0,6.0,39,0.00,,,0.00,Wunderground v.1.15,2013-03-14 16:20:00,
2013-03-14 12:30:00,44.4,19.7,30.22,North,355,6.0,6.0,37,0.00,,,0.00,Wunderground v.1.15,2013-03-14 16:30:00,
2013-03-14 12:40:00,45.0,20.9,30.20,WSW,256,7.0,8.0,38,0.00,,,0.00,Wunderground v.1.15,2013-03-14 16:40:00,
2013-03-14 12:50:00,45.3,20.5,30.20,NNE,22,8.0,8.0,37,0.00,,,0.00,Wunderground v.1.15,2013-03-14 16:50:00,
2013-03-14 13:00:00,45.7,21.5,30.20,NW,325,5.0,7.0,38,0.00,,,0.00,Wunderground v.1.15,2013-03-14 17:00:00,
2013-03-14 13:10:00,46.4,20.2,30.20,NNW,334,6.0,8.0,35,0.00,,,0.00,Wunderground v.1.15,2013-03-14 17:10:00,
2013-03-14 13:20:00,45.9,21.7,30.20,NW,325,5.0,7.0,38,0.00,,,0.00,Wunderground v.1.15,2013-03-14 17:20:00,
2013-03-14 13:30:00,46.9,20.6,30.19,NW,314,7.0,7.0,35,0.00,,,0.00,Wunderground v.1.15,2013-03-14 17:30:00,
2013-03-14 13:35:00,47.6,20.6,30.19,NNW,328,6.0,7.0,34,0.00,,,0.00,Wunderground v.1.15,2013-03-14 17:35:00,
2013-03-14 13:45:00,46.8,19.2,30.19,NNW,340,6.0,6.0,33,0.00,,,0.00,Wunderground v.1.15,2013-03-14 17:45:00,
2013-03-14 13:50:00,47.0,20.0,30.18,NNE,13,6.0,6.0,34,0.00,,,0.00,Wunderground v.1.15,2013-03-14 17:50:00,
2013-03-14 14:00:00,47.8,20.1,30.18,NNE,26,5.0,8.0,33,0.00,,,0.00,Wunderground v.1.15,2013-03-14 18:00:00,
2013-03-14 14:05:00,48.3,21.9,30.18,NNW,334,7.0,9.0,35,0.00,,,0.00,Wunderground v.1.15,2013-03-14 18:05:00,
2013-03-14 14:15:00,49.1,21.2,30.17,NW,320,6.0,6.0,33,0.00,,,0.00,Wunderground v.1.15,2013-03-14 18:15:00,
2013-03-14 14:25:00,48.6,20.0,30.17,North,350,4.0,6.0,32,0.00,,,0.00,Wunderground v.1.15,2013-03-14 18:25:00,
2013-03-14 14:40:00,49.5,22.9,30.17,WNW,302,6.0,6.0,35,0.00,,,0.00,Wunderground v.1.15,2013-03-14 18:40:00,
2013-03-14 14:50:00,49.6,19.4,30.17,WNW,303,6.0,6.0,30,0.00,,,0.00,Wunderground v.1.15,2013-03-14 18:50:00,
2013-03-14 15:00:00,49.7,21.7,30.16,NW,313,4.0,4.0,33,0.00,,,0.00,Wunderground v.1.15,2013-03-14 19:00:00,
2013-03-14 15:10:00,50.5,21.7,30.16,NNW,348,4.0,4.0,32,0.00,,,0.00,Wunderground v.1.15,2013-03-14 19:10:00,
2013-03-14 15:20:00,50.9,22.1,30.15,NW,307,6.0,6.0,32,0.00,,,0.00,Wunderground v.1.15,2013-03-14 19:20:00,
2013-03-14 15:30:00,51.0,20.6,30.15,SW,231,7.0,7.0,30,0.00,,,0.00,Wunderground v.1.15,2013-03-14 19:30:00,
2013-03-14 15:40:00,51.6,21.1,30.15,WNW,293,6.0,8.0,30,0.00,,,0.00,Wunderground v.1.15,2013-03-14 19:40:00,
2013-03-14 15:45:00,51.4,21.0,30.15,West,270,7.0,9.0,30,0.00,,,0.00,Wunderground v.1.15,2013-03-14 19:45:00,
2013-03-14 15:55:00,51.9,21.4,30.14,NW,307,6.0,7.0,30,0.00,,,0.00,Wunderground v.1.15,2013-03-14 19:55:00,
2013-03-14 16:05:00,52.6,20.4,30.14,WNW,301,5.0,6.0,28,0.00,,,0.00,Wunderground v.1.15,2013-03-14 20:05:00,
2013-03-14 16:15:00,52.7,20.5,30.13,NW,321,5.0,6.0,28,0.00,,,0.00,Wunderground v.1.15,2013-03-14 20:15:00,
2013-03-14 16:25:00,52.2,20.0,30.13,NNW,327,6.0,12.0,28,0.00,,,0.00,Wunderground v.1.15,2013-03-14 20:25:00,
2013-03-14 16:35:00,52.4,20.2,30.13,WNW,290,5.0,8.0,28,0.00,,,0.00,Wunderground v.1.15,2013-03-14 20:35:00,
2013-03-14 16:45:00,53.1,20.8,30.12,North,355,5.0,6.0,28,0.00,,,0.00,Wunderground v.1.15,2013-03-14 20:45:00,
2013-03-14 16:55:00,52.8,20.5,30.12,NW,322,5.0,6.0,28,0.00,,,0.00,Wunderground v.1.15,2013-03-14 20:55:00,
2013-03-14 17:05:00,53.3,19.2,30.12,NW,317,5.0,6.0,26,0.00,,,0.00,Wunderground v.1.15,2013-03-14 21:05:00,
2013-03-14 17:15:00,53.0,20.7,30.12,NW,323,6.0,7.0,28,0.00,,,0.00,Wunderground v.1.15,2013-03-14 21:15:00,
2013-03-14 17:20:00,53.1,20.8,30.11,NNW,331,6.0,6.0,28,0.00,,,0.00,Wunderground v.1.15,2013-03-14 21:20:00,
2013-03-14 17:30:00,53.0,20.7,30.11,WNW,293,4.0,6.0,28,0.00,,,0.00,Wunderground v.1.15,2013-03-14 21:30:00,
2013-03-14 17:40:00,53.5,21.2,30.11,West,263,5.0,7.0,28,0.00,,,0.00,Wunderground v.1.15,2013-03-14 21:40:00,
2013-03-14 17:50:00,53.2,20.9,30.11,West,274,5.0,8.0,28,0.00,,,0.00,Wunderground v.1.15,2013-03-14 21:50:00,
2013-03-14 18:00:00,52.9,21.5,30.11,WNW,283,5.0,5.0,29,0.00,,,0.00,Wunderground v.1.15,2013-03-14 22:00:00,
2013-03-14 18:10:00,53.1,20.8,30.11,WNW,286,6.0,7.0,28,0.00,,,0.00,Wunderground v.1.15,2013-03-14 22:10:00,
2013-03-14 18:15:00,53.0,22.4,30.11,WNW,286,6.0,7.0,30,0.00,,,0.00,Wunderground v.1.15,2013-03-14 22:15:00,
2013-03-14 18:25:00,52.9,21.5,30.11,WNW,298,4.0,5.0,29,0.00,,,0.00,Wunderground v.1.15,2013-03-14 22:25:00,
2013-03-14 18:35:00,52.6,21.2,30.11,WNW,284,4.0,5.0,29,0.00,,,0.00,Wunderground v.1.15,2013-03-14 22:35:00,
2013-03-14 18:45:00,52.3,21.7,30.12,NW,306,3.0,4.0,30,0.00,,,0.00,Wunderground v.1.15,2013-03-14 22:45:00,
2013-03-14 18:55:00,51.9,22.2,30.12,West,275,4.0,4.0,31,0.00,,,0.00,Wunderground v.1.15,2013-03-14 22:55:00,
2013-03-14 19:05:00,51.5,22.6,30.13,West,277,4.0,5.0,32,0.00,,,0.00,Wunderground v.1.15,2013-03-14 23:05:00,
2013-03-14 19:15:00,51.2,22.3,30.13,West,277,3.0,4.0,32,0.00,,,0.00,Wunderground v.1.15,2013-03-14 23:15:00,
2013-03-14 19:25:00,50.8,23.4,30.13,West,275,3.0,3.0,34,0.00,,,0.00,Wunderground v.1.15,2013-03-14 23:25:00,
2013-03-14 19:35:00,50.4,24.4,30.14,West,277,3.0,3.0,36,0.00,,,0.00,Wunderground v.1.15,2013-03-14 23:35:00,
2013-03-14 19:45:00,50.3,25.0,30.14,West,269,3.0,4.0,37,0.00,,,0.00,Wunderground v.1.15,2013-03-14 23:45:00,
2013-03-14 19:55:00,50.0,24.7,30.14,West,265,3.0,4.0,37,0.00,,,0.00,Wunderground v.1.15,2013-03-14 23:55:00,
2013-03-14 20:05:00,49.9,24.6,30.14,WSW,256,3.0,4.0,37,0.00,,,0.00,Wunderground v.1.15,2013-03-15 00:05:00,
2013-03-14 20:15:00,49.7,25.1,30.13,WSW,257,2.0,3.0,38,0.00,,,0.00,Wunderground v.1.15,2013-03-15 00:15:00,
2013-03-14 20:25:00,49.5,25.5,30.13,WSW,256,2.0,2.0,39,0.00,,,0.00,Wunderground v.1.15,2013-03-15 00:25:00,
2013-03-14 20:35:00,49.3,26.6,30.14,WSW,257,1.0,2.0,41,0.00,,,0.00,Wunderground v.1.15,2013-03-15 00:35:00,
2013-03-14 20:45:00,49.1,26.4,30.14,WSW,257,1.0,3.0,41,0.00,,,0.00,Wunderground v.1.15,2013-03-15 00:45:00,
2013-03-14 20:55:00,48.8,26.7,30.14,WSW,257,2.0,3.0,42,0.00,,,0.00,Wunderground v.1.15,2013-03-15 00:55:00,
2013-03-14 21:05:00,48.5,27.0,30.14,WSW,252,2.0,3.0,43,0.00,,,0.00,Wunderground v.1.15,2013-03-15 01:05:00,
2013-03-14 21:15:00,48.1,27.2,30.14,WSW,252,2.0,3.0,44,0.00,,,0.00,Wunderground v.1.15,2013-03-15 01:15:00,
2013-03-14 21:25:00,47.7,27.4,30.14,WSW,252,1.0,2.0,45,0.00,,,0.00,Wunderground v.1.15,2013-03-15 01:25:00,
2013-03-14 21:35:00,47.5,27.2,30.15,WSW,252,1.0,1.0,45,0.00,,,0.00,Wunderground v.1.15,2013-03-15 01:35:00,
2013-03-14 21:45:00,47.2,28.0,30.14,WSW,252,1.0,1.0,47,0.00,,,0.00,Wunderground v.1.15,2013-03-15 01:45:00,
2013-03-14 21:55:00,46.9,28.2,30.15,WSW,252,0.0,1.0,48,0.00,,,0.00,Wunderground v.1.15,2013-03-15 01:55:00,
2013-03-14 22:05:00,46.5,28.3,30.14,WSW,252,1.0,1.0,49,0.00,,,0.00,Wunderground v.1.15,2013-03-15 02:05:00,
2013-03-14 22:15:00,46.0,28.9,30.15,WSW,252,0.0,1.0,51,0.00,,,0.00,Wunderground v.1.15,2013-03-15 02:15:00,
2013-03-14 22:25:00,45.2,28.6,30.14,WSW,252,0.0,0.0,52,0.00,,,0.00,Wunderground v.1.15,2013-03-15 02:25:00,
2013-03-14 22:35:00,44.7,29.1,30.14,WSW,252,0.0,0.0,54,0.00,,,0.00,Wunderground v.1.15,2013-03-15 02:35:00,
2013-03-14 22:40:00,44.3,29.1,30.14,WSW,252,0.0,0.0,55,0.00,,,0.00,Wunderground v.1.15,2013-03-15 02:40:00,
2013-03-14 22:50:00,43.6,29.8,30.14,WSW,252,0.0,0.0,58,0.00,,,0.00,Wunderground v.1.15,2013-03-15 02:50:00,
2013-03-14 22:55:00,43.1,29.7,30.14,WSW,252,0.0,0.0,59,0.00,,,0.00,Wunderground v.1.15,2013-03-15 02:55:00,
2013-03-14 23:00:00,42.9,30.0,30.14,WSW,252,0.0,0.0,60,0.00,,,0.00,Wunderground v.1.15,2013-03-15 03:00:00,
2013-03-14 23:10:00,43.5,30.9,30.14,WSW,252,1.0,2.0,61,0.00,,,0.00,Wunderground v.1.15,2013-03-15 03:10:00,
2013-03-14 23:20:00,43.6,31.0,30.15,WSW,252,1.0,1.0,61,0.00,,,0.00,Wunderground v.1.15,2013-03-15 03:20:00,
2013-03-14 23:30:00,43.1,30.6,30.15,WSW,252,0.0,0.0,61,0.00,,,0.00,Wunderground v.1.15,2013-03-15 03:30:00,
2013-03-14 23:40:00,42.7,29.8,30.16,WSW,252,0.0,1.0,60,0.00,,,0.00,Wunderground v.1.15,2013-03-15 03:40:00,
2013-03-14 23:50:00,42.4,29.5,30.15,WSW,252,0.0,1.0,60,0.00,,,0.00,Wunderground v.1.15,2013-03-15 03:50:00,